GW4659 Weather Reports


Display with metric or nautical units.
time (UTC)temp
F
wind
direction
speed
MPH
gust
MPH
rain 1hr
in
rain 24hr
in
rain mn
in
humidity
%
barometer
mb
20260504221001 78 280 1.0 6.0 0.00 0.00 0.00 37 1014.8
20260504220003 78 101 1.0 3.0 0.00 0.00 0.00 38 1014.6
20260504215000 78 109 1.0 3.0 0.00 0.00 0.00 38 1014.9
20260504214005 78 284 1.0 5.0 0.00 0.00 0.00 37 1014.8
20260504213000 79 276 0.0 5.0 0.00 0.00 0.00 39 1015.1
20260504212006 80 290 1.0 6.0 0.00 0.00 0.00 37 1015.0
20260504210003 81 285 1.0 3.0 0.00 0.00 0.00 36 1015.0
20260504204959 81 101 1.0 3.0 0.00 0.00 0.00 36 1015.0
20260504203959 81 343 1.0 6.0 0.00 0.00 0.00 36 1015.0
20260504203005 81 276 1.0 3.0 0.00 0.00 0.00 35 1015.2
20260504201959 81 61 1.0 3.0 0.00 0.00 0.00 35 1015.3
20260504200959 81 278 0.0 3.0 0.00 0.00 0.00 35 1015.4
20260504200002 80 277 1.0 3.0 0.00 0.00 0.00 37 1015.5
20260504194002 79 229 1.0 2.0 0.00 0.00 0.00 38 1015.8
20260504193000 79 89 1.0 3.0 0.00 0.00 0.00 36 1016.0
20260504190959 79 274 0.0 4.0 0.00 0.00 0.00 39 1016.0
20260504185959 79 94 1.0 2.0 0.00 0.00 0.00 38 1016.4
20260504185003 79 281 1.0 4.0 0.00 0.00 0.00 39 1016.6
20260504183959 81 265 0.0 3.0 0.00 0.00 0.00 41 1016.5
20260504182000 78 288 2.0 4.0 0.00 0.00 0.00 40 1016.9
20260504181003 80 295 1.0 5.0 0.00 0.00 0.00 40 1017.0
20260504180002 79 240 0.0 2.0 0.00 0.00 0.00 43 1017.2
20260504174959 79 247 0.0 8.0 0.00 0.00 0.00 44 1017.1
20260504173958 78 105 1.0 4.0 0.00 0.00 0.00 44 1017.2
20260504173000 79 289 0.0 3.0 0.00 0.00 0.00 40 1017.4
20260504172006 79 266 0.0 1.0 0.00 0.00 0.00 41 1017.6
20260504170959 77 288 1.0 4.0 0.00 0.00 0.00 44 1018.0
20260504140958 70 121 0.0 2.0 0.00 0.00 0.00 54 1018.9
20260504081959 45 271 0.0 0.0 0.00 0.00 0.00 90 1018.0
20260504080959 45 271 0.0 0.0 0.00 0.00 0.00 89 1018.3
20260504045016 49 271 0.0 0.0 0.00 0.00 0.00 81 1019.5
20260504044016 50 271 0.0 0.0 0.00 0.00 0.00 80 1019.5
20260504043017 50 271 0.0 0.0 0.00 0.00 0.00 80 1019.6
20260504041016 50 271 0.0 0.0 0.00 0.00 0.00 78 1019.6
20260504040018 50 271 0.0 0.0 0.00 0.00 0.00 77 1019.7
20260504033015 51 271 0.0 0.0 0.00 0.00 0.00 76 1020.1
20260504032015 52 271 0.0 0.0 0.00 0.00 0.00 75 1020.2
20260504031015 52 271 0.0 0.0 0.00 0.00 0.00 73 1020.1
20260504025016 53 271 0.0 0.0 0.00 0.00 0.00 71 1019.8
20260504024016 53 271 0.0 0.0 0.00 0.00 0.00 70 1019.7
20260504023017 54 271 0.0 0.0 0.00 0.00 0.00 69 1019.6
20260504022016 54 271 0.0 0.0 0.00 0.00 0.00 68 1019.6
20260504021017 54 271 0.0 0.0 0.00 0.00 0.00 67 1019.5
20260504020018 55 271 0.0 0.0 0.00 0.00 0.00 66 1019.4
20260504015016 55 271 0.0 0.0 0.00 0.00 0.00 64 1019.3
20260504014016 56 271 0.0 0.0 0.00 0.00 0.00 63 1019.4
20260504013016 57 271 0.0 0.0 0.00 0.00 0.00 62 1019.0
20260504012016 57 271 0.0 0.0 0.00 0.00 0.00 61 1019.0
20260504011015 58 271 0.0 0.0 0.00 0.00 0.00 60 1019.1
20260504010015 59 271 0.0 0.0 0.00 0.00 0.00 58 1019.0
20260504005015 60 271 0.0 0.0 0.00 0.00 0.00 56 1018.8
20260504004016 62 271 0.0 0.0 0.00 0.00 0.00 55 1018.9
20260504003016 63 271 0.0 0.0 0.00 0.00 0.00 53 1018.8
20260504002016 64 271 0.0 1.0 0.00 0.00 0.00 52 1018.6
20260504001017 65 271 0.0 0.0 0.00 0.00 0.00 47 1018.6
20260504000018 66 271 0.0 1.0 0.00 0.00 0.00 44 1018.7
20260503235015 68 271 0.0 1.0 0.00 0.00 0.00 39 1018.6
20260503234016 70 266 0.0 1.0 0.00 0.00 0.00 39 1018.5
20260503233016 71 266 0.0 3.0 0.00 0.00 0.00 36 1018.4
20260503232016 71 250 0.0 2.0 0.00 0.00 0.00 36 1018.6
20260503231017 72 82 0.0 1.0 0.00 0.00 0.00 38 1018.7
20260503230018 71 250 1.0 3.0 0.00 0.00 0.00 35 1018.6
20260503225016 71 246 0.0 3.0 0.00 0.00 0.00 35 1018.7
20260503223017 69 240 1.0 5.0 0.00 0.00 0.00 37 1018.7
20260503222017 69 244 1.0 4.0 0.00 0.00 0.00 36 1018.9